Flag for Thailand Weather past 2 weeks in Phuket, Thailand

Now
77 °F

Partly cloudy.


Feels Like: 78 °F
Forecast: 73 / 86 °F
Wind: No wind

Location: Phuket Airport

Current Time: Oct 21, 2014 at 4:46:09 AM

Latest Report: Oct 21, 2014 at 4:00 AM


Visibility: 5 mi

Pressure: 29.86 "Hg

Humidity: 89%

Dew point: 73 °F

Location of PhuketLocation

Historic Weather in Phuket — Graph

°F

Phuket temperature yesterday

Maximum temperature yesterday: 84 °F (at 12:00 PM)
Minimum temperature yesterday: 75 °F (at 12:00 AM)
Average temperature yesterday: 80 °F

Past Weeks' High & Low Weather Summary

 TemperatureHumidityPressure
High90 °F (Oct 10, 11:30 AM)94% (Oct 7, 3:00 AM)29.95 "Hg (Oct 7, 3:00 AM)
Low73 °F (Oct 13, 7:00 PM)52% (Oct 11, 11:30 AM)29.74 "Hg (Oct 6, 2:30 PM)
Average80 °F80%29.84 "Hg
* Reported Oct 6 3:00 AM — Oct 21 3:00 AM, Phuket, Weather by CustomWeather, © 2014

Note: Actual official high and low records may vary slightly from our data, if they occured in-between our weather recording intervals... More about our weather records

Advertising

Phuket weather history for previous 24 hours

 ConditionsComfort  
Time TempWeatherWind HumidityBarometerVisibility
3:00 AM
Oct 21
77 °FPartly cloudy.No wind89%29.86 "Hg5 mi
1:00 AM77 °FPartly cloudy.No wind89%29.89 "Hg5 mi
12:30 AM79 °FPartly cloudy.No wind84%29.89 "Hg5 mi
12:00 AM79 °FPartly cloudy.No wind89%29.89 "Hg5 mi
11:30 PM
Oct 20
79 °FPartly cloudy.10 mph89%29.92 "Hg5 mi
11:00 PM79 °FPartly cloudy.5 mph89%29.92 "Hg5 mi
10:30 PM79 °FPartly cloudy.5 mph89%29.89 "Hg5 mi
10:00 PM79 °FPartly cloudy.3 mph84%29.89 "Hg5 mi
9:30 PM79 °FPartly cloudy.3 mph89%29.89 "Hg5 mi
9:00 PM79 °FPartly cloudy.No wind89%29.86 "Hg5 mi
8:30 PM79 °FPartly cloudy.5 mph89%29.86 "Hg5 mi
8:00 PM79 °FPartly cloudy.No wind89%29.86 "Hg5 mi
7:30 PM79 °FPartly cloudy.No wind89%29.83 "Hg4 mi
7:00 PM81 °FPartly cloudy.No wind84%29.83 "Hg4 mi
6:30 PM81 °FPartly cloudy.5 mph79%29.83 "Hg4 mi
6:00 PM82 °FBroken clouds.2 mph74%29.80 "Hg6 mi
5:30 PM84 °FBroken clouds.2 mph74%29.80 "HgN/A
5:00 PM84 °FBroken clouds.5 mph70%29.80 "HgN/A
4:30 PM84 °FBroken clouds.6 mph70%29.77 "HgN/A
4:00 PM82 °FBroken clouds.No wind79%29.77 "HgN/A
3:30 PM82 °FBroken clouds.2 mph79%29.77 "Hg6 mi
3:00 PM84 °FRain. Broken clouds.5 mph74%29.77 "Hg4 mi
2:30 PM84 °FBroken clouds.3 mph74%29.80 "HgN/A
2:00 PM84 °FBroken clouds.3 mph70%29.80 "HgN/A
1:30 PM84 °FBroken clouds.3 mph70%29.80 "HgN/A
1:00 PM82 °FBroken clouds.3 mph79%29.83 "Hg6 mi
12:30 PM84 °FBroken clouds.3 mph74%29.83 "Hg6 mi
12:00 PM84 °FBroken clouds.6 mph74%29.86 "HgN/A
10:00 AM82 °FBroken clouds.6 mph79%29.92 "HgN/A
9:30 AM81 °FBroken clouds.5 mph84%29.92 "HgN/A
9:00 AM79 °FBroken clouds.3 mph89%29.89 "HgN/A
8:30 AM79 °FBroken clouds.3 mph89%29.89 "HgN/A
8:00 AM77 °FBroken clouds.5 mph94%29.89 "Hg6 mi
7:30 AM77 °FBroken clouds.3 mph89%29.86 "Hg6 mi
7:00 AM75 °FBroken clouds.3 mph94%29.86 "Hg6 mi
6:30 AM75 °FBroken clouds.3 mph89%29.86 "Hg6 mi
6:00 AM75 °FPartly cloudy.No wind89%29.83 "Hg6 mi
4:00 AM75 °FPartly cloudy.No wind89%29.80 "Hg6 mi
Weather by CustomWeather, © 2014

See weather overviewHow to use our weather pages